Location: Escondido Hill
(38.9119°N, 104.7815°W)
Time: 05:25:30
(UTC-07:00)

Hubble Space Telescope - Visible Passes

Search period start: 22 January 2019 00:00
Search period end: 01 February 2019 00:00
Orbit: 537 x 540 km, 28.5° (Epoch: 21 January)

Date Brightness Start Highest point End Pass type
(mag) Time Alt. Az. Time Alt. Az. Time Alt. Az.
22 Jan 3.4 04:34:05 14° SE 04:34:05 14° SE 04:35:06 10° SE visible
22 Jan 3.0 06:10:11 10° SW 06:12:43 16° S 06:15:15 10° SSE visible
23 Jan 3.7 04:24:15 11° SE 04:24:15 11° SE 04:24:34 10° SE visible
23 Jan 3.1 05:59:54 10° SW 06:02:09 14° SSW 06:04:24 10° SSE visible
24 Jan 3.1 05:49:45 10° SW 05:51:35 13° SSW 05:53:24 10° SSE visible
25 Jan 3.2 05:39:55 10° SSW 05:41:00 11° SSW 05:42:04 10° S visible
